Home > Weather > Iquique > Past weeks

Flag for Chile Weather for the Past 2 Weeks in Iquique, Chile

Now
73 °F

Clear.


Feels Like: 76 °F
Forecast: 70 / 81 °F
Wind: 7 mph from Southeast

Location: Iquique / Diego Arac

Current Time: Feb 13, 2016 at 7:14:37 AM

Latest Report: Feb 13, 2016 at 7:00 AM


Visibility: 10 mi

Pressure: 29.89 "Hg

Humidity: 61%

Dew point: 59 °F

Location of IquiqueLocation

Historic Weather in Iquique — Graph

°F

Iquique Temperature Yesterday

Maximum temperature yesterday: 79 °F (at 4:00 PM)
Minimum temperature yesterday: 70 °F (at 5:00 AM)
Average temperature yesterday: 74 °F

High & Low Weather Summary for the Past Weeks

 TemperatureHumidityPressure
High81 °F (Jan 30, 3:00 PM)78% (Feb 7, 7:00 AM)30.01 "Hg (Feb 7, 7:00 AM)
Low68 °F (Feb 4, 6:00 AM)42% (Jan 31, 6:00 PM)29.83 "Hg (Feb 1, 6:00 PM)
Average74 °F62%29.92 "Hg
* Reported Jan 29 6:00 AM — Feb 13 6:00 AM, Iquique, Weather by CustomWeather, © 2016

Note: Actual official high and low records may vary slightly from our data, if they occured in-between our weather recording intervals... More about our weather records

Advertising

Iquique Weather History for the Previous 24 Hours

 ConditionsComfort  
Time TempWeatherWind HumidityBarometerVisibility
6:00 AM
Sat, Feb 13
72 °FClear.9 mph61%29.89 "Hg10 mi
5:00 AM72 °FClear.6 mph61%29.89 "Hg10 mi
4:00 AM72 °FClear.2 mph65%29.89 "Hg10 mi
3:00 AM73 °FClear.10 mph57%29.89 "Hg10 mi
2:00 AM73 °FClear.8 mph57%29.92 "Hg10 mi
1:00 AM73 °FClear.9 mph57%29.95 "Hg10 mi
12:00 AM73 °FClear.9 mph61%29.98 "Hg10 mi
11:00 PM
Fri, Feb 12
73 °FClear.8 mph61%29.98 "Hg10 mi
10:00 PM73 °FClear.12 mph65%29.95 "Hg10 mi
9:00 PM73 °FClear.10 mph69%29.92 "Hg10 mi
8:00 PM75 °FSunny.12 mph61%29.89 "Hg10 mi
7:00 PM75 °FSunny.13 mph57%29.89 "Hg10 mi
6:00 PM77 °FSunny.15 mph54%29.86 "Hg10 mi
5:00 PM77 °FSunny.15 mph54%29.89 "Hg10 mi
4:00 PM79 °FSunny.13 mph54%29.89 "Hg10 mi
3:00 PM77 °FSunny.14 mph54%29.89 "Hg10 mi
2:00 PM77 °FSunny.14 mph57%29.89 "Hg10 mi
1:00 PM77 °FSunny.12 mph57%29.92 "Hg10 mi
12:00 PM77 °FSunny.13 mph57%29.92 "Hg10 mi
11:00 AM75 °FSunny.10 mph57%29.92 "Hg10 mi
10:00 AM73 °FSunny.6 mph61%29.92 "Hg10 mi
9:00 AM72 °FSunny.5 mph65%29.92 "Hg10 mi
8:00 AM70 °FSunny.5 mph64%29.89 "Hg10 mi
7:00 AM70 °FClear.No wind64%29.89 "Hg10 mi
Weather by CustomWeather, © 2016

See weather overviewHow to use our weather pages